Regional Weather Roundup
Issued by NWS Newport/Morehead, NC

Home | Current Version | Previous Version | Text Only | Print | Product List | Glossary On
Versions: 1 2 3 4 5 6 7 8 9 10 11 12 13 14 15 16 17 18 19 20 21 22 23 24 25 26 27 28 29 30 31 32 33 34 35 36 37 38 39 40 41 42 43 44 45 46 47 48 49 50
000
ASUS42 KMHX 250925
RWRMHX
WEATHER ROUNDUP FOR EASTERN NORTH CAROLINA
NATIONAL WEATHER SERVICE NEWPORT/MOREHEAD CITY NC
500 AM EDT MON MAY 25 2015

NOTE: "FAIR" INDICATES FEW OR NO CLOUDS BELOW 12,000 FEET
WITH NO SIGNIFICANT WEATHER AND/OR OBSTRUCTIONS TO VISIBILITY

NCZ015>017-031-032-045>047-102-103-251000-
NORTH COAST

CITY           SKY/WX    TMP DP  RH WIND       PRES   REMARKS
EDENTON        CLEAR     65  60  84 SW6       30.34S
ELIZABETH CITY CLEAR     61  58  90 S5        30.34S
KITTY HAWK     SUNNY     65  58  78 CALM      30.33S
MANTEO         CLEAR     59  57  92 CALM      30.34F

$$

NCZ045>047-081-094-103-104-251000-
CENTRAL COAST

CITY           SKY/WX    TMP DP  RH WIND       PRES   REMARKS
FRISCO         CLEAR     56  53  90 E3        30.34S
SWANQUARTER      N/A     70 N/A N/A S5        30.30S

$$

NCZ095-097-098-100-101-251000-
SOUTHERN COAST

CITY           SKY/WX    TMP DP  RH WIND       PRES   REMARKS
BEAUFORT       CLEAR     61  57  87 SE3       30.33F
CEDAR ISLAND     N/A     64 N/A N/A S1        30.36F
JACKSONVILLE   CLEAR     60  58  92 CALM      30.33S
PINEY ISLAND   SUNNY    N/A N/A N/A S3        30.33F
WILMINGTON     CLEAR     60  58  92 NE5       30.31F


$$

NCZ011>013-027>030-043-044-078>080-089-090>093-098-251000-
COASTAL PLAIN

CITY           SKY/WX    TMP DP  RH WIND       PRES   REMARKS
AHOSKIE        CLEAR     56  55  94 CALM      30.33S
CLINTON        CLEAR     58  58 100 CALM      30.33F
ELIZABETHTOWN  PTCLDY    58  57  98 CALM      30.32S
GOLDSBORO      CLEAR     60  59  96 CALM      30.31S
GREENVILLE     CLEAR     61  59  94 CALM      30.34S
HAVELOCK       CLEAR     59  55  87 CALM      30.35S
KENANSVILLE    CLEAR     55  54  95 CALM      30.34S FOG
KINSTON        CLEAR     58  57  97 CALM      30.34S
NEW BERN       CLEAR     58  55  90 CALM      30.35S
RICHLANDS      CLEAR     55  52  88 CALM      30.33F
ROCKY MOUNT    CLEAR     59  57  93 CALM      30.33S
WASHINGTON     CLEAR     59  56  92 CALM      30.34S
WHITEVILLE     PTCLDY    57  55  95 CALM      30.31F

$$

AMZ130-135-150-152-154-156-158-170-250-252-270-ANZ085-086-088-633-658-670-251000-
MARINE OBSERVATIONS

STATION/POSITION TIME  TEMP    WIND        PRES    WAVE   SWELL
                       AIR SEA DIR/SP/G            HT/PER HT/PER
                 (UTC) (F)     (DEG/KT/KT) (MB)    (FT/S) (FT/S)
CHESAPEAKE LIGHT 0900   65     200/ 14/ 15 1027.4
64 E VA BEACH    0850   64 62  200/  6/  6 1027.2    1/ 8   2/ 8
DUCK             0900   66 62  170/  5/  6 1026.3
2 E DUCK         0811      63                N/A     1/ 8
OREGON INLET     0900   64 73  130/  4/  5 1027.5
13E OREGON INLT  0900      65                N/A     2/ 7
HATTERAS CG      0900   68 74   80/  2/  2 1026.9
DIAMOND BUOY     0850   73 77  160/  6/  8 1027.6    2/ 7   2/ 7
CAPE LOOKOUT     0900   72     130/  8/  9 1026.8
BEAUFORT LAB     0900   70 74  140/  4/  5 1026.2
27 SE WRIGHTSVLE 0900   70 76  160/  8/ 10   N/A
5 SE WRIGHTSVLE  0808   74 76  150/  8/ 12 1026.7
225 S CAPE HAT   0850   73 74  100/ 12/ 14 1026.2    4/ 6   3/ 6
41 SE CHARLESTON 0850   74 75  110/ 10/ 12 1024.8    5/ 8   5/ 8

$$


USA.gov is the U.S. government's official web portal to all federal, state and local government web resources and services.